[[{"header":{"parameterUnit":"m.s-1","parameterCategory":2,"la1":30.2991,"la2":30.254,"lo1":-89.0895,"lo2":-89.0444,"dy":0.0017,"dx":0.0017,"nx":28,"ny":28,"refTime":"2024-11-30T03:00:00:Z","depth":"0","parameterNumber":2,"parameterNumberName":"U-component_of_CURRENTS"},"data":[0,0,0,0,0,0,0,0,0,0,0,0,0,0,0,0,0,0,0,0,0,0,0,0,0,0,0,0,0,0,0,0,0,0,0,0,0,0,0,0,0,0,0,0,0,0,0,0,0,0,0,0,0,0,0,0,0,0,-0.2288,-0.2288,0,-0.2285,-0.2284,-0.2284,-0.2194,-0.2193,-0.2191,-0.2189,-0.2108,-0.2107,-0.2106,0,0,0,0,0,0,0,0,0,0,0,0,0,-0.2236,-0.2237,-0.2288,-0.2288,-0.2289,-0.2285,-0.2284,-0.2283,-0.2195,-0.2193,-0.2191,-0.2189,-0.2108,-0.2107,-0.2106,0,0,0,0,0,0,0,0,0,0,0,0,0,-0.2242,-0.2237,-0.2288,-0.2249,-0.2247,-0.2285,-0.2284,-0.2283,-0.2195,-0.2192,-0.219,-0.2188,-0.2108,-0.2107,-0.2106,-0.215,0,0,-0.2103,-0.2103,0,0,0,0,0,0,0,0,-0.2241,-0.2243,-0.2254,-0.2252,-0.2249,-0.2244,-0.2236,-0.2237,-0.2196,-0.2207,-0.2189,-0.2186,-0.2152,-0.2148,-0.2143,-0.2146,-0.2142,-0.2103,-0.2103,-0.2102,-0.2102,0,0,0,0,0,0,0,-0.2241,-0.2242,-0.2279,-0.2256,-0.2252,-0.224,-0.2237,-0.2236,-0.2186,-0.2206,-0.2201,-0.2213,-0.2149,-0.2145,-0.2141,-0.2141,-0.2103,-0.2102,-0.2102,-0.2101,-0.2152,-0.2154,0,0,0,0,0,0,-0.2258,-0.2242,-0.2279,-0.228,-0.2247,-0.2243,-0.224,-0.2242,-0.2188,-0.218,-0.2215,-0.2209,-0.2147,-0.2142,-0.2137,-0.2163,-0.2102,-0.2101,-0.2101,-0.215,-0.2153,-0.2155,0,0,0,0,0,0,-0.2257,-0.2261,-0.228,-0.2267,-0.2269,-0.2247,-0.2251,-0.2243,-0.2232,-0.2198,-0.2186,-0.2211,-0.2145,-0.2139,-0.2136,-0.216,-0.2101,-0.21,-0.2148,-0.2151,-0.2154,-0.2229,0,0,0,0,0,0,-0.2255,-0.226,-0.2263,-0.2268,-0.2271,-0.2306,-0.2254,-0.2245,-0.2247,-0.2239,-0.2191,-0.2181,-0.2143,-0.2137,-0.2135,-0.2157,-0.2099,-0.2146,-0.2149,-0.2153,-0.2224,-0.2234,-0.2243,0,0,0,0,0,-0.2253,-0.2275,-0.2263,-0.2268,-0.2277,-0.2308,-0.2308,-0.2279,-0.225,-0.2256,-0.2221,-0.2182,-0.2158,-0.2139,-0.2135,-0.2158,-0.2144,-0.2148,-0.2152,-0.222,-0.2232,-0.2243,0,0,0,0,0,0,-0.2261,-0.2269,-0.2255,-0.2278,-0.2294,-0.2296,-0.2306,-0.2291,-0.227,-0.2257,-0.2207,-0.2196,-0.2203,-0.218,-0.216,-0.2186,-0.2146,-0.215,-0.2198,-0.221,-0.2219,-0.224,-0.2098,0,0,0,0,0,-0.2267,-0.2273,-0.229,-0.2308,-0.2321,-0.2315,-0.2322,-0.231,-0.2301,-0.2288,-0.2256,-0.2231,-0.2224,-0.2214,-0.2203,-0.2222,-0.2212,-0.2236,-0.2245,-0.2253,-0.2271,-0.2269,-0.228,-0.2169,-0.2169,-0.2169,0,0,-0.2278,-0.2282,-0.2287,-0.2309,-0.2315,-0.2346,-0.231,-0.2335,-0.2352,-0.2287,-0.2288,-0.2264,-0.2238,-0.225,-0.2252,-0.2229,-0.2285,-0.2259,-0.2265,-0.2279,-0.2275,-0.2285,-0.2295,-0.2172,-0.2171,-0.2171,0,0,-0.2311,-0.2308,-0.2327,-0.2348,-0.2372,-0.2374,-0.2386,-0.2394,-0.2384,-0.24,-0.2355,-0.2355,-0.2335,-0.2326,-0.2318,-0.2383,-0.2336,-0.237,-0.2429,-0.2428,-0.2437,-0.2444,-0.2463,-0.2471,-0.2371,-0.2372,-0.2372,0,-0.2325,-0.2345,-0.2342,-0.2376,-0.2398,-0.2391,-0.2429,-0.2436,-0.2436,-0.2438,-0.2409,-0.24,-0.2379,-0.24,-0.2418,-0.2404,-0.2393,-0.2383,-0.2439,-0.2446,-0.2453,-0.2469,-0.2478,-0.2376,-0.2375,-0.2375,-0.2374,0,-0.2368,-0.2394,-0.2417,-0.2444,-0.2469,-0.2505,-0.2524,-0.2538,-0.2525,-0.2521,-0.2536,-0.2514,-0.2503,-0.2503,-0.2479,-0.2518,-0.2493,-0.2451,-0.2407,-0.2468,-0.2483,-0.249,-0.2382,-0.238,-0.2379,-0.2378,0,0,-0.2362,-0.2433,-0.2436,-0.2463,-0.2506,-0.2532,-0.2576,-0.2607,-0.2625,-0.2624,-0.2647,-0.265,-0.2624,-0.2618,-0.2589,-0.2595,-0.2642,-0.2546,-0.2543,-0.2559,-0.2647,-0.2566,-0.2566,-0.2591,-0.2592,-0.2593,-0.2645,0,-0.239,-0.2463,-0.2489,-0.2555,-0.2592,-0.2615,-0.2654,-0.2681,-0.2686,-0.2706,-0.2701,-0.2707,-0.2671,-0.2664,-0.2671,-0.2639,-0.2661,-0.2633,-0.259,-0.2591,-0.2506,-0.2572,-0.2378,-0.2401,-0.2652,-0.2653,-0.2653,0,-0.2402,-0.2451,-0.2524,-0.2603,-0.2621,-0.2658,-0.2705,-0.2742,-0.2777,-0.2783,-0.2794,-0.2777,-0.2801,-0.2756,-0.2756,-0.2729,-0.271,-0.269,-0.2689,-0.2593,-0.2523,-0.2378,-0.2404,-0.2326,-0.2664,-0.2663,-0.2663,0,-0.2364,-0.2466,-0.2519,-0.2548,-0.264,-0.267,-0.2707,-0.2751,-0.2781,-0.2824,-0.2841,-0.2854,-0.2855,-0.2838,-0.2806,-0.2774,-0.2804,-0.2747,-0.2671,-0.2665,-0.2484,-0.246,-0.2423,-0.277,-0.277,-0.277,-0.277,0,-0.2361,-0.2403,-0.2507,-0.2533,-0.2598,-0.2658,-0.271,-0.2753,-0.2809,-0.2843,-0.2866,-0.2891,-0.287,-0.2876,-0.2844,-0.2786,-0.2834,-0.2705,-0.2675,-0.2507,-0.2485,-0.2394,-0.2417,-0.2772,-0.2771,-0.2771,-0.2771,0,-0.2301,-0.2374,-0.2438,-0.2542,-0.258,-0.2614,-0.2712,-0.2745,-0.2802,-0.2852,-0.2868,-0.2918,-0.2918,-0.291,-0.2892,-0.2819,-0.2715,-0.2759,-0.2579,-0.2525,-0.2335,-0.237,-0.238,-0.232,-0.2665,-0.2663,-0.2661,0,-0.2272,-0.2303,-0.2422,-0.2464,-0.2511,-0.2581,-0.2632,-0.2723,-0.2762,-0.2858,-0.2879,-0.2916,-0.2911,-0.2875,-0.2755,-0.269,-0.2684,-0.2492,-0.2394,-0.2321,-0.2338,-0.2379,-0.2332,-0.2198,-0.2193,-0.2189,-0.2186,0,-0.2211,-0.2253,-0.2308,-0.2396,-0.246,-0.2541,-0.2619,-0.2656,-0.2755,-0.2801,-0.2858,-0.2865,-0.2805,-0.2625,-0.2537,-0.2472,-0.238,-0.2402,-0.2356,-0.201,-0.2024,-0.1949,-0.2202,-0.2149,-0.2153,-0.2155,-0.2157,-0.2159,-0.2143,-0.2164,-0.2238,-0.2308,-0.2394,-0.2468,-0.2473,-0.2555,-0.2609,-0.2594,-0.2724,-0.2624,-0.2478,-0.2293,-0.2239,-0.1979,-0.2133,-0.1864,-0.1931,-0.1994,-0.1879,-0.2074,-0.1961,-0.1964,-0.1966,-0.1968,-0.1969,0,-0.2034,-0.2078,-0.2148,-0.2224,-0.2261,-0.2351,-0.2432,-0.2387,-0.2379,-0.237,-0.2357,-0.2167,-0.1967,-0.1841,-0.1588,-0.1494,-0.1467,-0.1487,-0.1472,-0.1458,-0.1614,-0.1527,-0.1277,-0.1277,-0.1277,-0.1277,-0.1277,-0.1277,-0.1982,-0.1991,-0.2033,-0.2057,-0.2111,-0.2088,-0.2097,-0.2044,-0.1998,-0.182,-0.1672,-0.1644,-0.1548,-0.1503,-0.1289,-0.1219,-0.1209,-0.1189,-0.1299,-0.1355,-0.1393,-0.1431,-0.1349,-0.1066,-0.1066,-0.1008,-0.1008,-0.1008]},{"header":{"parameterUnit":"m.s-1","parameterCategory":2,"la1":30.2991,"la2":30.254,"lo1":-89.0895,"lo2":-89.0444,"dy":0.0017,"dx":0.0017,"nx":28,"ny":28,"refTime":"2024-11-30T03:00:00:Z","depth":"0","parameterNumber":3,"parameterNumberName":"V-component_of_CURRENTS"},"data":[0,0,0,0,0,0,0,0,0,0,0,0,0,0,0,0,0,0,0,0,0,0,0,0,0,0,0,0,0,0,0,0,0,0,0,0,0,0,0,0,0,0,0,0,0,0,0,0,0,0,0,0,0,0,0,0,0,0,-0.088,-0.0881,0,-0.0921,-0.0921,-0.0922,-0.0906,-0.0906,-0.0905,-0.0905,-0.0739,-0.0736,-0.0732,0,0,0,0,0,0,0,0,0,0,0,0,0,-0.0831,-0.0832,-0.088,-0.0881,-0.0882,-0.0921,-0.0921,-0.0922,-0.0907,-0.0906,-0.0905,-0.0905,-0.0741,-0.0736,-0.0731,0,0,0,0,0,0,0,0,0,0,0,0,0,-0.0856,-0.0832,-0.088,-0.0882,-0.0883,-0.0921,-0.0921,-0.0922,-0.0907,-0.0906,-0.0905,-0.0904,-0.0742,-0.0736,-0.0731,-0.071,0,0,-0.0713,-0.071,0,0,0,0,0,0,0,0,-0.0855,-0.0857,-0.0881,-0.0882,-0.0883,-0.0912,-0.0844,-0.0842,-0.0907,-0.0893,-0.0905,-0.0904,-0.0781,-0.0772,-0.0778,-0.0702,-0.0695,-0.0712,-0.0709,-0.0706,-0.0704,0,0,0,0,0,0,0,-0.0853,-0.0856,-0.0892,-0.0882,-0.0884,-0.0897,-0.0899,-0.0844,-0.0834,-0.0894,-0.0894,-0.0906,-0.078,-0.0784,-0.0774,-0.0693,-0.0712,-0.0707,-0.0703,-0.0701,-0.055,-0.055,0,0,0,0,0,0,-0.0856,-0.0854,-0.089,-0.0893,-0.0872,-0.0899,-0.09,-0.09,-0.0839,-0.0832,-0.0907,-0.0906,-0.0795,-0.0781,-0.0767,-0.0719,-0.0706,-0.0701,-0.0697,-0.0551,-0.055,-0.0549,0,0,0,0,0,0,-0.0854,-0.0858,-0.0889,-0.0879,-0.0884,-0.09,-0.09,-0.0901,-0.0903,-0.0852,-0.0839,-0.0907,-0.0793,-0.0776,-0.0712,-0.0713,-0.0698,-0.0693,-0.0551,-0.055,-0.055,-0.0634,0,0,0,0,0,0,-0.0852,-0.0857,-0.0858,-0.0879,-0.0885,-0.0903,-0.0901,-0.0903,-0.0914,-0.0912,-0.0847,-0.0832,-0.0792,-0.0722,-0.0707,-0.0704,-0.0688,-0.0552,-0.0551,-0.055,-0.0631,-0.0636,-0.064,0,0,0,0,0,-0.085,-0.0867,-0.0858,-0.0863,-0.0886,-0.0903,-0.0907,-0.0913,-0.0915,-0.0912,-0.0869,-0.0834,-0.0705,-0.0717,-0.0699,-0.0695,-0.0552,-0.0551,-0.055,-0.063,-0.0635,-0.064,0,0,0,0,0,0,-0.0871,-0.0868,-0.0858,-0.0879,-0.0882,-0.0902,-0.0917,-0.0916,-0.0887,-0.0882,-0.0826,-0.0807,-0.075,-0.0708,-0.0722,-0.0647,-0.0623,-0.0619,-0.069,-0.0694,-0.0698,-0.0717,-0.0683,0,0,0,0,0,-0.087,-0.0866,-0.0872,-0.0888,-0.0892,-0.0901,-0.0911,-0.0912,-0.0896,-0.0886,-0.084,-0.0786,-0.0735,-0.0703,-0.0648,-0.0607,-0.0593,-0.0592,-0.0596,-0.06,-0.0602,-0.059,-0.0594,-0.0546,-0.0546,-0.0546,0,0,-0.0889,-0.0885,-0.0888,-0.0889,-0.0898,-0.0918,-0.0904,-0.0923,-0.0929,-0.0867,-0.0848,-0.0793,-0.0725,-0.0682,-0.0653,-0.0645,-0.0608,-0.0599,-0.0603,-0.0602,-0.0589,-0.0594,-0.0599,-0.0545,-0.0545,-0.0545,0,0,-0.0932,-0.0915,-0.0927,-0.0932,-0.094,-0.0936,-0.0939,-0.0944,-0.093,-0.0903,-0.0862,-0.0811,-0.0733,-0.0696,-0.0664,-0.0654,-0.0627,-0.0631,-0.067,-0.0659,-0.0664,-0.0668,-0.0677,-0.068,-0.0638,-0.0638,-0.0638,0,-0.0948,-0.0967,-0.0938,-0.0961,-0.0977,-0.0945,-0.0977,-0.0961,-0.094,-0.093,-0.0898,-0.0806,-0.0744,-0.0706,-0.07,-0.0665,-0.0662,-0.0664,-0.0669,-0.0672,-0.0674,-0.0682,-0.0685,-0.0642,-0.0642,-0.0641,-0.0641,0,-0.1003,-0.1022,-0.1038,-0.1039,-0.1046,-0.1067,-0.1046,-0.1032,-0.1003,-0.0986,-0.0932,-0.085,-0.0802,-0.0769,-0.0727,-0.0712,-0.0706,-0.0677,-0.0667,-0.0685,-0.0691,-0.0693,-0.0648,-0.0646,-0.0645,-0.0644,0,0,-0.1011,-0.1063,-0.1066,-0.1095,-0.1089,-0.1107,-0.1102,-0.1091,-0.1099,-0.1036,-0.1038,-0.0934,-0.0894,-0.0854,-0.0794,-0.077,-0.0783,-0.0735,-0.0733,-0.0764,-0.0779,-0.0629,-0.0616,-0.0763,-0.0763,-0.0763,-0.0785,0,-0.1054,-0.1133,-0.1129,-0.1192,-0.1231,-0.1202,-0.1206,-0.119,-0.1148,-0.1133,-0.1043,-0.1008,-0.0926,-0.0903,-0.0866,-0.0803,-0.0788,-0.078,-0.0739,-0.0738,-0.0617,-0.0612,-0.0488,-0.0483,-0.0787,-0.0787,-0.0788,0,-0.109,-0.1142,-0.1228,-0.1283,-0.1294,-0.1316,-0.132,-0.1316,-0.1274,-0.1247,-0.1193,-0.1123,-0.1067,-0.0993,-0.0911,-0.0915,-0.0853,-0.0799,-0.0799,-0.0626,-0.0588,-0.0506,-0.0475,-0.031,-0.079,-0.079,-0.079,0,-0.1118,-0.1197,-0.1271,-0.1295,-0.1351,-0.1371,-0.1376,-0.1354,-0.136,-0.1318,-0.1321,-0.1235,-0.1193,-0.1111,-0.0965,-0.0959,-0.0874,-0.086,-0.0671,-0.0662,-0.0527,-0.0503,-0.0341,-0.0807,-0.0807,-0.0807,-0.0807,0,-0.1156,-0.1212,-0.1299,-0.1346,-0.1427,-0.1427,-0.1478,-0.147,-0.1458,-0.1483,-0.1383,-0.1367,-0.1216,-0.113,-0.1018,-0.0834,-0.092,-0.0672,-0.0645,-0.0551,-0.053,-0.0354,-0.0308,-0.0807,-0.0807,-0.0807,-0.0807,0,-0.1179,-0.1235,-0.1335,-0.1423,-0.1453,-0.1507,-0.1564,-0.1596,-0.157,-0.16,-0.1593,-0.1483,-0.1346,-0.1178,-0.1029,-0.0885,-0.0611,-0.0656,-0.0551,-0.0507,-0.015,-0.0114,0.0061,0.0159,-0.0474,-0.0471,-0.0467,0,-0.1196,-0.126,-0.1403,-0.1477,-0.1523,-0.1601,-0.1657,-0.1658,-0.1687,-0.1666,-0.1685,-0.1543,-0.1421,-0.1119,-0.0816,-0.0573,-0.0468,-0.0329,-0.0262,-0.0092,-0.0037,-0.0022,0.0046,-0.015,-0.0144,-0.014,-0.0136,0,-0.1237,-0.1297,-0.1393,-0.1556,-0.1648,-0.1746,-0.1812,-0.1847,-0.1844,-0.1836,-0.1787,-0.1679,-0.1315,-0.0917,-0.0528,-0.0372,-0.0157,-0.0224,-0.0081,0.0225,0.028,0.0375,-0.0202,-0.0096,-0.01,-0.0103,-0.0105,-0.0107,-0.1262,-0.1348,-0.1489,-0.1633,-0.1759,-0.1867,-0.1914,-0.1945,-0.1965,-0.1887,-0.1818,-0.1531,-0.0987,-0.0374,-0.0208,0.029,0.018,0.0428,0.0444,0.0433,0.0597,0.0127,0.0301,0.03,0.0298,0.0297,0.0296,0,-0.1285,-0.1397,-0.155,-0.1735,-0.1877,-0.1917,-0.2007,-0.2003,-0.1991,-0.1801,-0.1674,-0.0969,-0.0422,0.0071,0.0716,0.0937,0.0946,0.1023,0.1052,0.1079,0.0644,0.0735,0.1055,0.1055,0.1055,0.1055,0.1055,0.1054,-0.1306,-0.1451,-0.1545,-0.1791,-0.1913,-0.2027,-0.2056,-0.201,-0.1857,-0.1447,-0.0983,-0.0637,0.0044,0.0878,0.1411,0.1455,0.1577,0.1592,0.1606,0.13,0.1244,0.1191,0.1292,0.1723,0.1724,0.2067,0.2071,0.2073]}],[{"header":{"parameterUnit":"m.s-1","parameterCategory":2,"la1":30.2991,"la2":30.254,"lo1":-89.0895,"lo2":-89.0444,"dy":0.0017,"dx":0.0017,"nx":28,"ny":28,"refTime":"2024-11-30T03:00:00:Z","depth":"2","parameterNumber":2,"parameterNumberName":"U-component_of_CURRENTS"},"data":[0,0,0,0,0,0,0,0,0,0,0,0,0,0,0,0,0,0,0,0,0,0,0,0,0,0,0,0,0,0,0,0,0,0,0,0,0,0,0,0,0,0,0,0,0,0,0,0,0,0,0,0,0,0,0,0,0,0,-0.1679,-0.1678,0,-0.1672,-0.1673,-0.1674,-0.1698,-0.1698,-0.1698,-0.1697,-0.1935,-0.1941,-0.1948,0,0,0,0,0,0,0,0,0,0,0,0,0,-0.1689,-0.1689,-0.1679,-0.1678,-0.1677,-0.1672,-0.1673,-0.1674,-0.1698,-0.1698,-0.1698,-0.1697,-0.1933,-0.194,-0.1948,0,0,0,0,0,0,0,0,0,0,0,0,0,-0.1692,-0.169,-0.1679,-0.1682,-0.1681,-0.1672,-0.1673,-0.1674,-0.1698,-0.1698,-0.1698,-0.1697,-0.193,-0.194,-0.1949,-0.2012,0,0,-0.1979,-0.1983,0,0,0,0,0,0,0,0,-0.1692,-0.1693,-0.1682,-0.1682,-0.1681,-0.1678,-0.1763,-0.1796,-0.1698,-0.1701,-0.1697,-0.1697,-0.1866,-0.1881,-0.1889,-0.2023,-0.2034,-0.198,-0.1985,-0.199,-0.1992,0,0,0,0,0,0,0,-0.1692,-0.1693,-0.1686,-0.1681,-0.168,-0.1674,-0.1676,-0.1769,-0.1796,-0.1701,-0.17,-0.1685,-0.1868,-0.188,-0.1896,-0.2037,-0.1979,-0.1988,-0.1994,-0.1998,-0.2279,-0.2281,0,0,0,0,0,0,-0.1676,-0.1693,-0.1686,-0.1685,-0.1676,-0.1674,-0.1676,-0.1686,-0.179,-0.1801,-0.1685,-0.1686,-0.1863,-0.1884,-0.1904,-0.2,-0.1989,-0.1999,-0.2004,-0.2278,-0.228,-0.2281,0,0,0,0,0,0,-0.1677,-0.1676,-0.1686,-0.168,-0.1679,-0.1673,-0.1685,-0.1686,-0.1691,-0.1773,-0.1791,-0.1686,-0.1864,-0.1891,-0.2002,-0.201,-0.2003,-0.2012,-0.2276,-0.2278,-0.2281,-0.2184,0,0,0,0,0,0,-0.1678,-0.1678,-0.1687,-0.168,-0.1679,-0.1677,-0.1684,-0.1686,-0.1678,-0.1679,-0.1782,-0.1803,-0.1866,-0.1987,-0.2012,-0.2023,-0.2019,-0.2273,-0.2277,-0.228,-0.2185,-0.2183,-0.2181,0,0,0,0,0,-0.1678,-0.1691,-0.1689,-0.1687,-0.1691,-0.1676,-0.1677,-0.1677,-0.1677,-0.1682,-0.1765,-0.1799,-0.2024,-0.1997,-0.2025,-0.2039,-0.2272,-0.2276,-0.2279,-0.2186,-0.2183,-0.2181,0,0,0,0,0,0,-0.1686,-0.1693,-0.1691,-0.1702,-0.1685,-0.1677,-0.1685,-0.1672,-0.1734,-0.1752,-0.183,-0.1859,-0.197,-0.2022,-0.1989,-0.2133,-0.2151,-0.2161,-0.207,-0.2069,-0.2067,-0.2072,-0.2027,0,0,0,0,0,-0.1693,-0.1713,-0.1698,-0.1701,-0.1704,-0.1693,-0.1688,-0.168,-0.1719,-0.1742,-0.1819,-0.1913,-0.2008,-0.2049,-0.2157,-0.2226,-0.2266,-0.2254,-0.2252,-0.2249,-0.2276,-0.2299,-0.2299,-0.2294,-0.2294,-0.2294,0,0,-0.1692,-0.1696,-0.1706,-0.1704,-0.1706,-0.1712,-0.1694,-0.1686,-0.1701,-0.1768,-0.1854,-0.1931,-0.2036,-0.2126,-0.2175,-0.2163,-0.2276,-0.2254,-0.225,-0.2279,-0.2303,-0.2303,-0.2302,-0.2297,-0.2296,-0.2296,0,0,-0.1693,-0.1713,-0.173,-0.1734,-0.1723,-0.1719,-0.1711,-0.1718,-0.174,-0.181,-0.1872,-0.1933,-0.2088,-0.2133,-0.2181,-0.2232,-0.2285,-0.2277,-0.2244,-0.2264,-0.2264,-0.2264,-0.2315,-0.232,-0.2246,-0.2246,-0.2246,0,-0.1697,-0.1713,-0.1724,-0.1741,-0.1749,-0.1723,-0.1736,-0.1752,-0.1793,-0.1819,-0.1841,-0.2022,-0.2085,-0.2167,-0.2184,-0.2222,-0.2268,-0.223,-0.2256,-0.2257,-0.2258,-0.2311,-0.2318,-0.2242,-0.2242,-0.2243,-0.2243,0,-0.1706,-0.1728,-0.174,-0.1767,-0.1775,-0.1779,-0.1794,-0.1825,-0.1847,-0.1848,-0.1946,-0.2027,-0.2115,-0.2136,-0.2183,-0.2228,-0.227,-0.2262,-0.2244,-0.2252,-0.2308,-0.2317,-0.2236,-0.2237,-0.2238,-0.2239,0,0,-0.1698,-0.1743,-0.1742,-0.1769,-0.1795,-0.1796,-0.1849,-0.1867,-0.1897,-0.1934,-0.1977,-0.2085,-0.2089,-0.2147,-0.2187,-0.2195,-0.2223,-0.2234,-0.2236,-0.2255,-0.2309,-0.2141,-0.2136,-0.2218,-0.2219,-0.222,-0.2341,0,-0.1703,-0.1733,-0.1757,-0.1791,-0.1822,-0.1853,-0.1901,-0.1917,-0.1953,-0.1995,-0.2017,-0.2083,-0.21,-0.2136,-0.2146,-0.2244,-0.2246,-0.2195,-0.2328,-0.2333,-0.2155,-0.2138,-0.1955,-0.2031,-0.2351,-0.2352,-0.2353,0,-0.1705,-0.173,-0.1766,-0.1831,-0.1848,-0.187,-0.1946,-0.1969,-0.201,-0.2055,-0.2083,-0.2104,-0.215,-0.2141,-0.2259,-0.2237,-0.2271,-0.2313,-0.2317,-0.2205,-0.218,-0.208,-0.2036,-0.2369,-0.2367,-0.2366,-0.2365,0,-0.1686,-0.1738,-0.1766,-0.1791,-0.1857,-0.19,-0.192,-0.1978,-0.2001,-0.2062,-0.2107,-0.2148,-0.2202,-0.2244,-0.2299,-0.2301,-0.2414,-0.2412,-0.2291,-0.2283,-0.2176,-0.2153,-0.2456,-0.2456,-0.2456,-0.2455,-0.2455,0,-0.1686,-0.1713,-0.1765,-0.1786,-0.183,-0.1883,-0.1934,-0.1981,-0.2031,-0.2053,-0.2109,-0.2169,-0.2234,-0.2282,-0.2318,-0.2328,-0.2417,-0.2297,-0.2289,-0.2137,-0.211,-0.2448,-0.2445,-0.246,-0.2459,-0.2458,-0.2457,0,-0.1658,-0.1692,-0.1738,-0.1807,-0.1823,-0.1847,-0.1905,-0.1924,-0.2024,-0.207,-0.208,-0.2195,-0.2286,-0.2316,-0.2406,-0.235,-0.2365,-0.2329,-0.2151,-0.2115,-0.2234,-0.2226,-0.2243,-0.2238,-0.2234,-0.223,-0.2227,0,-0.1641,-0.1659,-0.1721,-0.174,-0.1772,-0.1816,-0.1825,-0.1893,-0.1918,-0.2086,-0.2089,-0.2198,-0.2236,-0.2295,-0.2218,-0.2197,-0.2296,-0.1995,-0.1919,-0.2215,-0.2207,-0.2206,-0.2204,-0.1779,-0.1772,-0.1767,-0.1763,0,-0.1605,-0.1631,-0.1655,-0.1683,-0.1701,-0.1718,-0.175,-0.178,-0.1871,-0.1955,-0.2068,-0.2105,-0.2145,-0.2018,-0.1937,-0.1903,-0.1974,-0.1879,-0.2251,-0.1815,-0.1773,-0.1765,-0.178,-0.1715,-0.172,-0.1723,-0.1726,-0.1728,-0.1569,-0.1567,-0.1586,-0.1607,-0.1621,-0.162,-0.1607,-0.1667,-0.1701,-0.1783,-0.1907,-0.1905,-0.1887,-0.1661,-0.1591,-0.1523,-0.1668,-0.1591,-0.1611,-0.1636,-0.1514,-0.146,-0.1326,-0.1329,-0.1331,-0.1333,-0.1334,0,-0.1513,-0.1503,-0.1506,-0.1502,-0.1475,-0.1517,-0.1533,-0.1508,-0.1534,-0.1584,-0.1631,-0.1464,-0.1338,-0.135,-0.1151,-0.1091,-0.1124,-0.1065,-0.1117,-0.1162,-0.1203,-0.1063,-0.0755,-0.0754,-0.0752,-0.0751,0,0,-0.1482,-0.1451,-0.1434,-0.1352,-0.1354,-0.1268,-0.1273,-0.1262,-0.1262,-0.1257,-0.1211,-0.1241,-0.1259,-0.0989,-0.0934,-0.0816,-0.099,-0.0775,-0.1234,-0.134,-0.1379,-0.1491,-0.1322,0,0,0,0,0]},{"header":{"parameterUnit":"m.s-1","parameterCategory":2,"la1":30.2991,"la2":30.254,"lo1":-89.0895,"lo2":-89.0444,"dy":0.0017,"dx":0.0017,"nx":28,"ny":28,"refTime":"2024-11-30T03:00:00:Z","depth":"2","parameterNumber":3,"parameterNumberName":"V-component_of_CURRENTS"},"data":[0,0,0,0,0,0,0,0,0,0,0,0,0,0,0,0,0,0,0,0,0,0,0,0,0,0,0,0,0,0,0,0,0,0,0,0,0,0,0,0,0,0,0,0,0,0,0,0,0,0,0,0,0,0,0,0,0,0,0.006,0.0062,0,0.0178,0.0179,0.018,0.0232,0.0233,0.0233,0.0234,0.0385,0.0389,0.0393,0,0,0,0,0,0,0,0,0,0,0,0,0,-0.0023,-0.0023,0.006,0.0062,0.0064,0.0178,0.0179,0.018,0.0232,0.0233,0.0233,0.0234,0.0384,0.0388,0.0393,0,0,0,0,0,0,0,0,0,0,0,0,0,0.004,-0.0023,0.006,0.0108,0.0114,0.0177,0.0179,0.018,0.0232,0.0233,0.0233,0.0234,0.0383,0.0388,0.0393,0.0415,0,0,0.041,0.0413,0,0,0,0,0,0,0,0,0.0036,0.0042,0.0099,0.0105,0.0112,0.0196,0.0206,0.0262,0.0232,0.0181,0.0234,0.0234,0.0329,0.0339,0.035,0.0422,0.0429,0.0411,0.0414,0.0416,0.0418,0,0,0,0,0,0,0,0.0032,0.0038,0.0101,0.0101,0.0109,0.0158,0.0166,0.0216,0.0246,0.0186,0.0191,0.0214,0.0332,0.0345,0.0355,0.0431,0.0411,0.0415,0.0419,0.0421,0.0546,0.0546,0,0,0,0,0,0,0.0023,0.0033,0.0097,0.0105,0.0082,0.0159,0.0168,0.0164,0.0245,0.0259,0.0213,0.0216,0.0335,0.0348,0.036,0.039,0.0416,0.0422,0.0425,0.0546,0.0546,0.0546,0,0,0,0,0,0,0.002,0.0027,0.0092,0.0078,0.0091,0.016,0.0155,0.0166,0.0182,0.0267,0.028,0.0219,0.0336,0.0353,0.0421,0.0396,0.0424,0.0429,0.0546,0.0546,0.0546,0.045,0,0,0,0,0,0,0.0017,0.0024,0.0014,0.0077,0.0092,0.0121,0.0155,0.0168,0.0198,0.0203,0.0277,0.0291,0.0338,0.0412,0.0426,0.0404,0.0433,0.0546,0.0546,0.0546,0.0453,0.0447,0.0441,0,0,0,0,0,0.0013,0.0004,0.0012,0.0021,0.0076,0.0121,0.0131,0.018,0.0198,0.0197,0.0265,0.0289,0.0422,0.0418,0.0434,0.0413,0.0546,0.0546,0.0546,0.0456,0.0448,0.0441,0,0,0,0,0,0,-0.0012,0.0011,0.0021,0.0025,0.0064,0.0132,0.0142,0.0175,0.0224,0.0237,0.0304,0.0324,0.038,0.0412,0.0406,0.045,0.0482,0.0485,0.0407,0.0401,0.0395,0.0377,0.0438,0,0,0,0,0,-0.003,-0.0047,0.0002,0.0007,0.0018,0.0075,0.0099,0.0136,0.0195,0.0216,0.0267,0.0327,0.039,0.0409,0.0475,0.0494,0.053,0.0488,0.0482,0.0477,0.0474,0.053,0.0528,0.0546,0.0546,0.0546,0,0,-0.0034,-0.0022,-0.0029,-0.0002,0.0028,0.004,0.0089,0.0126,0.0139,0.0227,0.0253,0.0325,0.0401,0.0437,0.0459,0.0456,0.0485,0.0477,0.0471,0.0472,0.053,0.0528,0.0526,0.0546,0.0546,0.0546,0,0,-0.0048,-0.0049,-0.007,-0.005,-0.0007,0.0024,0.0029,0.0087,0.0107,0.0152,0.0226,0.0284,0.0353,0.0402,0.0437,0.0436,0.0472,0.0444,0.0374,0.0427,0.0426,0.0425,0.0436,0.0438,0.0415,0.0414,0.0414,0,-0.0063,-0.0079,-0.0061,-0.0066,-0.0054,0.0006,0.0004,0.0034,0.011,0.0129,0.0148,0.0276,0.0335,0.039,0.0384,0.042,0.0446,0.039,0.0418,0.0418,0.0419,0.0431,0.0434,0.041,0.041,0.0411,0.0411,0,-0.0083,-0.0101,-0.0106,-0.0115,-0.0097,-0.0087,-0.0043,-0.0025,0.0006,0.0049,0.0114,0.02,0.027,0.0287,0.0333,0.0364,0.0377,0.0422,0.0428,0.0411,0.0425,0.0429,0.0403,0.0405,0.0406,0.0407,0,0,-0.0118,-0.0131,-0.013,-0.0154,-0.0126,-0.0113,-0.0103,-0.0074,-0.006,-0.0001,0.0021,0.0113,0.0164,0.0208,0.0271,0.0299,0.0315,0.0342,0.0347,0.0339,0.0401,0.0429,0.0437,0.0365,0.0366,0.0366,0.0396,0,-0.015,-0.0186,-0.0173,-0.0203,-0.0227,-0.0186,-0.0184,-0.014,-0.0098,-0.0061,0.0022,0.0083,0.0131,0.0166,0.0203,0.0311,0.0328,0.0301,0.0433,0.0436,0.0453,0.0445,0.0411,0.0438,0.04,0.0401,0.0402,0,-0.0179,-0.0206,-0.0246,-0.0276,-0.028,-0.0285,-0.0271,-0.0247,-0.0175,-0.0142,-0.0074,0.0009,0.0074,0.0121,0.0244,0.0225,0.0298,0.0364,0.0368,0.0435,0.0474,0.0459,0.0448,0.041,0.0409,0.0409,0.0408,0,-0.0223,-0.026,-0.0303,-0.031,-0.0323,-0.0336,-0.0328,-0.0273,-0.0253,-0.0178,-0.0158,-0.0054,-0.0009,0.0107,0.024,0.0244,0.0376,0.0405,0.0491,0.0492,0.0511,0.0513,0.0488,0.0488,0.0488,0.0488,0.0488,0,-0.027,-0.0308,-0.0335,-0.036,-0.0405,-0.0386,-0.04,-0.0371,-0.0318,-0.0298,-0.0198,-0.0168,-0.0009,0.0094,0.0219,0.0363,0.0361,0.0478,0.0511,0.0474,0.0472,0.0499,0.05,0.0489,0.0489,0.0489,0.0489,0,-0.0311,-0.0326,-0.0392,-0.0426,-0.0431,-0.0459,-0.0454,-0.0452,-0.0405,-0.0375,-0.0356,-0.0256,-0.0139,0.0028,0.0209,0.0321,0.0475,0.0528,0.0453,0.0478,0.0548,0.0543,0.0609,0.061,0.0611,0.0612,0.0613,0,-0.0333,-0.0371,-0.0434,-0.0476,-0.05,-0.0528,-0.0535,-0.0491,-0.0484,-0.043,-0.0421,-0.0316,-0.023,0.0033,0.0249,0.0465,0.0486,0.0563,0.0578,0.0539,0.0564,0.0558,0.0552,0.0544,0.0545,0.0545,0.0545,0,-0.0383,-0.0411,-0.0459,-0.0546,-0.0584,-0.0604,-0.0617,-0.063,-0.0577,-0.0567,-0.0535,-0.046,-0.0215,0.0013,0.0307,0.0436,0.053,0.0574,0.0572,0.0528,0.0484,0.0507,0.0503,0.0547,0.0546,0.0546,0.0546,0.0546,-0.0419,-0.0467,-0.0538,-0.062,-0.0665,-0.0696,-0.0721,-0.0725,-0.0724,-0.0685,-0.0601,-0.0446,-0.0223,0.0197,0.0371,0.0546,0.0556,0.0619,0.0616,0.0613,0.0609,0.0572,0.0646,0.0647,0.0647,0.0647,0.0648,0,-0.0467,-0.0526,-0.0607,-0.0689,-0.0761,-0.0761,-0.0784,-0.0795,-0.0823,-0.0697,-0.0625,-0.0353,-0.0064,0.0177,0.0452,0.0612,0.0592,0.0631,0.0576,0.0574,0.0572,0.0564,0.0591,0.0591,0.0591,0.0591,0,0,-0.0496,-0.0586,-0.0628,-0.076,-0.0827,-0.088,-0.0912,-0.0907,-0.0826,-0.0745,-0.0574,-0.0302,-0.0007,0.0182,0.0353,0.0481,0.0484,0.0486,0.0517,0.0428,0.0425,0.0554,0.054,0,0,0,0,0]}],[{"header":{"parameterUnit":"m.s-1","parameterCategory":2,"la1":30.2991,"la2":30.254,"lo1":-89.0895,"lo2":-89.0444,"dy":0.0017,"dx":0.0017,"nx":28,"ny":28,"refTime":"2024-11-30T03:00:00:Z","depth":"4","parameterNumber":2,"parameterNumberName":"U-component_of_CURRENTS"},"data":[0,0,0,0,0,0,0,0,0,0,0,0,0,0,0,0,0,0,0,0,0,0,0,0,0,0,0,0,0,0,0,0,0,0,0,0,0,0,0,0,0,0,0,0,0,0,0,0,0,0,0,0,0,0,0,0,0,0,-0.1131,-0.1131,0,-0.1169,-0.117,-0.117,-0.1195,-0.1195,-0.1195,-0.1195,-0.1205,-0.1205,-0.1205,0,0,0,0,0,0,0,0,0,0,0,0,0,-0.1074,-0.1075,-0.1131,-0.1131,-0.1132,-0.1169,-0.117,-0.117,-0.1195,-0.1195,-0.1195,-0.1195,-0.1205,-0.1205,-0.1205,0,0,0,0,0,0,0,0,0,0,0,0,0,-0.1104,-0.1075,-0.1131,-0.1149,-0.1151,-0.1169,-0.117,-0.117,-0.1195,-0.1195,-0.1195,-0.1195,-0.1205,-0.1205,-0.1205,-0.1201,0,0,-0.1206,-0.1206,0,0,0,0,0,0,0,0,-0.1102,-0.1106,-0.1146,-0.1148,-0.115,-0.1178,-0.1153,-0.1179,-0.1195,-0.1178,-0.1195,-0.1196,-0.1193,-0.1194,-0.1201,-0.1201,-0.1202,-0.1206,-0.1206,-0.1206,-0.1206,0,0,0,0,0,0,0,-0.11,-0.1104,-0.1146,-0.1146,-0.1149,-0.1153,-0.1158,-0.1158,-0.1183,-0.1179,-0.1181,-0.1186,-0.1194,-0.1201,-0.1201,-0.1202,-0.1206,-0.1206,-0.1206,-0.1206,-0.1258,-0.1259,0,0,0,0,0,0,-0.1096,-0.1102,-0.1145,-0.1147,-0.1126,-0.1154,-0.1159,-0.1168,-0.1183,-0.1186,-0.1186,-0.1187,-0.12,-0.1201,-0.1202,-0.1248,-0.1206,-0.1206,-0.1206,-0.1256,-0.1258,-0.1259,0,0,0,0,0,0,-0.1095,-0.1099,-0.1143,-0.1125,-0.1131,-0.1155,-0.1165,-0.1169,-0.1193,-0.1189,-0.1191,-0.1208,-0.1201,-0.1202,-0.1224,-0.1247,-0.1206,-0.1206,-0.1255,-0.1257,-0.1258,-0.1308,0,0,0,0,0,0,-0.1093,-0.1099,-0.1112,-0.1125,-0.1132,-0.1166,-0.1165,-0.1169,-0.1195,-0.1197,-0.1208,-0.1208,-0.1201,-0.1224,-0.1224,-0.1246,-0.1206,-0.1253,-0.1256,-0.1258,-0.1305,-0.1311,-0.1317,0,0,0,0,0,-0.1091,-0.1105,-0.1113,-0.1119,-0.1148,-0.1167,-0.1172,-0.1188,-0.1196,-0.121,-0.1222,-0.1209,-0.1239,-0.1225,-0.1225,-0.1248,-0.1252,-0.1255,-0.1258,-0.1302,-0.131,-0.1317,0,0,0,0,0,0,-0.1085,-0.1109,-0.1118,-0.1139,-0.1158,-0.1172,-0.1188,-0.1199,-0.1221,-0.1226,-0.1223,-0.1224,-0.1253,-0.1245,-0.1229,-0.1271,-0.1244,-0.1247,-0.1278,-0.1285,-0.1291,-0.129,-0.1207,0,0,0,0,0,-0.109,-0.1111,-0.1129,-0.1149,-0.1159,-0.1177,-0.1191,-0.1202,-0.1218,-0.1229,-0.1239,-0.125,-0.1262,-0.127,-0.1276,-0.1297,-0.1287,-0.1313,-0.1319,-0.1324,-0.1324,-0.1335,-0.1341,-0.1269,-0.1269,-0.1269,0,0,-0.1092,-0.111,-0.1121,-0.115,-0.1165,-0.1186,-0.1187,-0.1211,-0.1236,-0.1225,-0.1266,-0.1271,-0.1273,-0.1299,-0.1311,-0.1297,-0.1342,-0.1328,-0.1332,-0.1329,-0.1338,-0.1345,-0.1351,-0.1271,-0.127,-0.127,0,0,-0.1099,-0.1124,-0.114,-0.1161,-0.1189,-0.1203,-0.1215,-0.124,-0.1262,-0.1295,-0.1297,-0.1319,-0.1337,-0.1346,-0.135,-0.1394,-0.1374,-0.1399,-0.1429,-0.1439,-0.1445,-0.145,-0.1451,-0.1456,-0.1402,-0.1402,-0.1402,0,-0.1101,-0.1125,-0.1147,-0.1168,-0.119,-0.1213,-0.1235,-0.1261,-0.1294,-0.1314,-0.1315,-0.1357,-0.1358,-0.139,-0.1408,-0.1407,-0.1406,-0.1399,-0.1447,-0.1451,-0.1456,-0.1456,-0.146,-0.1405,-0.1405,-0.1404,-0.1404,0,-0.1113,-0.1142,-0.1154,-0.1192,-0.1219,-0.1243,-0.1278,-0.1312,-0.1339,-0.136,-0.1405,-0.1413,-0.1435,-0.1445,-0.144,-0.1477,-0.1464,-0.1453,-0.1425,-0.1466,-0.1463,-0.1467,-0.1409,-0.1408,-0.1407,-0.1406,0,0,-0.1091,-0.115,-0.1158,-0.1182,-0.1236,-0.1256,-0.1307,-0.1352,-0.1386,-0.1422,-0.1462,-0.1491,-0.1497,-0.1502,-0.1504,-0.1517,-0.1548,-0.1502,-0.1501,-0.1498,-0.1569,-0.1471,-0.1465,-0.1546,-0.1547,-0.1548,-0.1557,0,-0.1094,-0.1134,-0.1169,-0.1218,-0.1241,-0.129,-0.1335,-0.1382,-0.1423,-0.1468,-0.1491,-0.1525,-0.152,-0.1533,-0.1548,-0.1549,-0.156,-0.1547,-0.1534,-0.1533,-0.1437,-0.1466,-0.1551,-0.1559,-0.156,-0.1561,-0.1561,0,-0.1089,-0.1121,-0.1163,-0.1233,-0.1249,-0.1286,-0.1361,-0.1405,-0.1473,-0.1502,-0.1542,-0.156,-0.1596,-0.1579,-0.1604,-0.1597,-0.1588,-0.1584,-0.1584,-0.1474,-0.1441,-0.151,-0.1567,-0.1567,-0.1566,-0.1566,-0.1566,0,-0.1053,-0.1118,-0.1153,-0.1177,-0.1255,-0.1291,-0.134,-0.1413,-0.1453,-0.1525,-0.1551,-0.1597,-0.162,-0.1626,-0.1622,-0.1619,-0.1636,-0.1626,-0.1529,-0.1522,-0.1586,-0.158,-0.1636,-0.1636,-0.1636,-0.1636,-0.1636,0,-0.1035,-0.1067,-0.1141,-0.1161,-0.1206,-0.1275,-0.1331,-0.1386,-0.1461,-0.15,-0.1563,-0.1587,-0.1633,-0.1648,-0.1637,-0.1589,-0.1647,-0.1533,-0.1517,-0.1607,-0.1604,-0.1588,-0.1582,-0.1636,-0.1636,-0.1636,-0.1636,0,-0.0986,-0.1037,-0.108,-0.1163,-0.1188,-0.1223,-0.1315,-0.1349,-0.1433,-0.1486,-0.1509,-0.1589,-0.1605,-0.1629,-0.164,-0.1594,-0.1566,-0.1532,-0.1628,-0.1616,-0.1443,-0.144,-0.1427,-0.1424,-0.1421,-0.1418,-0.1416,0,-0.0964,-0.0976,-0.1061,-0.1081,-0.112,-0.118,-0.1213,-0.1315,-0.1347,-0.1469,-0.1475,-0.1539,-0.1573,-0.1511,-0.1546,-0.1517,-0.1497,-0.1477,-0.146,-0.1436,-0.1422,-0.1424,-0.1425,-0.1412,-0.1411,-0.141,-0.1409,0,-0.0903,-0.0937,-0.0969,-0.1012,-0.1051,-0.1096,-0.1155,-0.1172,-0.1286,-0.1371,-0.1406,-0.1425,-0.1441,-0.1447,-0.1431,-0.141,-0.1489,-0.1447,-0.1453,-0.1436,-0.1418,-0.1407,-0.1411,-0.1399,-0.1401,-0.1402,-0.1402,0,-0.0855,-0.0852,-0.089,-0.0922,-0.0973,-0.0998,-0.1048,-0.1087,-0.1137,-0.1274,-0.128,-0.1353,-0.1429,-0.139,-0.1376,-0.1347,-0.1327,-0.1287,-0.1301,-0.1313,-0.1269,-0.1229,-0.1138,0,0,0,0,0,-0.0793,-0.0771,-0.0792,-0.0825,-0.0882,-0.0913,-0.0996,-0.105,-0.1157,-0.1146,-0.1215,-0.1226,-0.1235,-0.127,-0.1213,-0.1312,-0.1323,-0.1241,-0.1282,-0.1344,-0.1355,-0.1314,0,0,0,0,0,0,-0.0743,-0.0749,-0.0751,-0.0739,-0.075,-0.0799,-0.0855,-0.0935,-0.0935,-0.1051,-0.1053,-0.1144,-0.1154,-0.1238,-0.1183,-0.1191,-0.1192,-0.1286,-0.1282,-0.1337,-0.1348,-0.1357,-0.1318,0,0,0,0,0]},{"header":{"parameterUnit":"m.s-1","parameterCategory":2,"la1":30.2991,"la2":30.254,"lo1":-89.0895,"lo2":-89.0444,"dy":0.0017,"dx":0.0017,"nx":28,"ny":28,"refTime":"2024-11-30T03:00:00:Z","depth":"4","parameterNumber":3,"parameterNumberName":"V-component_of_CURRENTS"},"data":[0,0,0,0,0,0,0,0,0,0,0,0,0,0,0,0,0,0,0,0,0,0,0,0,0,0,0,0,0,0,0,0,0,0,0,0,0,0,0,0,0,0,0,0,0,0,0,0,0,0,0,0,0,0,0,0,0,0,0.0065,0.0065,0,0.0092,0.0092,0.0093,0.0116,0.0117,0.0117,0.0117,0.0167,0.0168,0.0169,0,0,0,0,0,0,0,0,0,0,0,0,0,0.005,0.005,0.0065,0.0065,0.0066,0.0092,0.0092,0.0093,0.0116,0.0117,0.0117,0.0118,0.0167,0.0168,0.0169,0,0,0,0,0,0,0,0,0,0,0,0,0,0.0063,0.005,0.0065,0.0081,0.0083,0.0092,0.0092,0.0093,0.0116,0.0117,0.0117,0.0118,0.0166,0.0168,0.0169,0.0167,0,0,0.0174,0.0174,0,0,0,0,0,0,0,0,0.0063,0.0064,0.0078,0.008,0.0082,0.0102,0.0106,0.0119,0.0116,0.0102,0.0117,0.0118,0.0148,0.0151,0.0153,0.0169,0.0172,0.0174,0.0175,0.0175,0.0176,0,0,0,0,0,0,0,0.0062,0.0063,0.0074,0.0079,0.0081,0.0094,0.0096,0.0108,0.0121,0.0104,0.0106,0.011,0.0149,0.0151,0.0154,0.0172,0.0174,0.0175,0.0176,0.0177,0.0191,0.0191,0,0,0,0,0,0,0.0059,0.0062,0.0073,0.0075,0.0075,0.0093,0.0096,0.0094,0.0121,0.0125,0.011,0.0111,0.0149,0.0153,0.0156,0.0157,0.0175,0.0177,0.0178,0.0192,0.0191,0.0191,0,0,0,0,0,0,0.0058,0.0059,0.0072,0.0071,0.0073,0.0093,0.0091,0.0095,0.0101,0.0125,0.013,0.0114,0.0149,0.0154,0.0163,0.016,0.0177,0.0179,0.0192,0.0191,0.0191,0.0159,0,0,0,0,0,0,0.0058,0.0059,0.0056,0.007,0.0073,0.0074,0.0091,0.0095,0.0104,0.0106,0.013,0.0135,0.015,0.0161,0.0164,0.0162,0.018,0.0193,0.0192,0.0191,0.016,0.0157,0.0154,0,0,0,0,0,0.0057,0.005,0.0055,0.0057,0.0068,0.0074,0.0076,0.0092,0.0103,0.0101,0.0116,0.0135,0.0158,0.0161,0.0166,0.0164,0.0193,0.0192,0.0191,0.0162,0.0157,0.0154,0,0,0,0,0,0,0.0045,0.0052,0.0058,0.0055,0.0063,0.0079,0.0079,0.0091,0.0101,0.0106,0.0128,0.0134,0.0138,0.0154,0.0157,0.0164,0.0179,0.0178,0.0155,0.0151,0.0148,0.0146,0.0181,0,0,0,0,0,0.0039,0.0035,0.0046,0.0044,0.0046,0.0063,0.0068,0.0079,0.0091,0.0096,0.0112,0.0127,0.0136,0.0146,0.0154,0.0161,0.0197,0.0162,0.0159,0.0156,0.0157,0.0211,0.0213,0.0187,0.0187,0.0187,0,0,0.0036,0.0039,0.0037,0.0041,0.0049,0.0043,0.0066,0.0073,0.007,0.01,0.0099,0.0115,0.0133,0.0136,0.014,0.0151,0.0182,0.0155,0.0152,0.0155,0.021,0.0213,0.0215,0.0186,0.0186,0.0186,0,0,0.0022,0.0026,0.0016,0.0017,0.0026,0.0033,0.0034,0.0048,0.0055,0.0057,0.0076,0.0092,0.0103,0.0119,0.0127,0.0113,0.0159,0.0113,0.0103,0.0155,0.0158,0.0161,0.0212,0.022,0.0117,0.0117,0.0117,0,0.0019,0.0004,0.0016,0.0004,0.0,0.0025,0.0012,0.0021,0.0036,0.0044,0.0052,0.0078,0.0095,0.0107,0.01,0.0107,0.0145,0.0116,0.0152,0.0156,0.016,0.0212,0.0221,0.0116,0.0116,0.0116,0.0116,0,-0.0003,-0.0018,-0.0024,-0.0035,-0.0036,-0.0042,-0.0031,-0.0027,-0.0013,0.0003,0.0019,0.0044,0.0064,0.0069,0.008,0.0108,0.0129,0.0139,0.0165,0.0161,0.0215,0.0226,0.0113,0.0114,0.0114,0.0115,0,0,-0.0007,-0.0035,-0.0037,-0.0058,-0.0059,-0.0065,-0.0068,-0.0062,-0.0057,-0.0034,-0.0022,-0.0003,0.0026,0.0038,0.0061,0.0104,0.0162,0.0131,0.0134,0.0186,0.0283,0.0236,0.0243,0.0183,0.0185,0.0186,0.0311,0,-0.0028,-0.0067,-0.0071,-0.0108,-0.013,-0.0117,-0.0125,-0.0113,-0.009,-0.0071,-0.0028,-0.0011,0.001,0.0023,0.007,0.0135,0.0187,0.0127,0.0274,0.0279,0.0242,0.0252,0.019,0.0319,0.0321,0.0323,0.0324,0,-0.0049,-0.0078,-0.0119,-0.0158,-0.0164,-0.0178,-0.0181,-0.0182,-0.0142,-0.0122,-0.0081,-0.0044,0.0013,0.0033,0.0161,0.0124,0.02,0.0256,0.0263,0.0238,0.0251,0.0323,0.0343,0.0342,0.034,0.0339,0.0338,0,-0.0066,-0.0112,-0.015,-0.0164,-0.0196,-0.0208,-0.0218,-0.0195,-0.0195,-0.0147,-0.0129,-0.0053,-0.0011,0.0089,0.0199,0.0189,0.0348,0.0354,0.0388,0.0386,0.0407,0.0402,0.0454,0.0454,0.0454,0.0454,0.0453,0,-0.009,-0.0122,-0.0165,-0.0188,-0.0235,-0.0239,-0.0263,-0.0254,-0.0231,-0.0225,-0.0155,-0.0124,0.0007,0.0107,0.0207,0.0325,0.0362,0.039,0.0414,0.0389,0.0381,0.0415,0.0409,0.0458,0.0457,0.0456,0.0456,0,-0.01,-0.0126,-0.018,-0.0228,-0.0247,-0.0277,-0.0309,-0.0318,-0.0288,-0.0274,-0.0261,-0.0159,-0.0036,0.0096,0.0269,0.0328,0.0449,0.0485,0.0452,0.0473,0.0454,0.0445,0.0537,0.0536,0.0535,0.0535,0.0535,0,-0.011,-0.0137,-0.021,-0.0251,-0.0277,-0.0323,-0.0351,-0.0348,-0.0351,-0.0296,-0.0285,-0.0171,-0.0095,0.0124,0.0257,0.0444,0.046,0.0525,0.0481,0.0447,0.0463,0.0454,0.0445,0.0534,0.0534,0.0533,0.0533,0,-0.0125,-0.0147,-0.019,-0.0279,-0.033,-0.0385,-0.0419,-0.0427,-0.041,-0.0383,-0.0304,-0.0197,-0.0057,0.0107,0.025,0.0382,0.0479,0.052,0.0522,0.0481,0.0445,0.0459,0.0451,0.0532,0.0532,0.0532,0.0532,0,-0.013,-0.0161,-0.022,-0.0299,-0.0374,-0.043,-0.0447,-0.0447,-0.0444,-0.0381,-0.0352,-0.02,-0.0103,0.0077,0.0212,0.0328,0.0349,0.0377,0.0387,0.039,0.0293,0.0223,0.0267,0,0,0,0,0,-0.013,-0.0163,-0.024,-0.033,-0.041,-0.0451,-0.0487,-0.0489,-0.047,-0.0426,-0.0391,-0.0265,-0.0073,0.0027,0.0135,0.0192,0.0363,0.0319,0.0399,0.0521,0.0523,0.0428,0,0,0,0,0,0,-0.013,-0.0183,-0.0231,-0.0343,-0.0411,-0.0489,-0.0515,-0.0503,-0.0469,-0.043,-0.0319,-0.0257,-0.0059,-0.0135,0.0133,0.017,0.0229,0.0419,0.042,0.052,0.0522,0.0524,0.0426,0,0,0,0,0]}]]